GW4288 Weather Reports


time (UTC)temp
C
wind
direction
speed
KPH
gust
KPH
rain 1hr
cm
rain 24hr
cm
rain mn
cm
humidity
%
barometer
mb
20260506224544 17 67 1.6 22.5 0.00 0.00 0.00 72 1007.6
20260506224048 17 295 6.4 16.1 0.00 0.00 0.00 71 1007.7
20260506223819 17 16 8.0 16.1 0.00 0.00 0.00 70 1007.6
20260506223047 17 69 3.2 16.1 0.00 0.00 0.00 71 1007.3
20260506222817 17 17 3.2 14.5 0.00 0.00 0.00 71 1007.4
20260506222047 17 220 6.4 11.3 0.00 0.00 0.00 71 1007.4
20260506221816 17 285 0.0 29.0 0.00 0.00 0.00 71 1007.5
20260506221047 17 250 4.8 29.0 0.00 0.00 0.00 70 1007.5
20260506220544 17 62 3.2 25.7 0.00 0.00 0.00 70 1007.5
20260506220047 17 154 8.0 16.1 0.00 0.00 0.00 70 1007.5
20260506215544 17 13 3.2 16.1 0.00 0.00 0.00 70 1007.3
20260506215047 17 67 4.8 16.1 0.00 0.00 0.00 70 1007.3
20260506214832 17 205 9.7 12.9 0.00 0.00 0.00 69 1007.3
20260506214322 17 272 4.8 20.9 0.00 0.00 0.00 69 1007.3
20260506213828 17 73 3.2 20.9 0.00 0.00 0.00 69 1007.5
20260506213047 17 127 1.6 22.5 0.00 0.00 0.00 69 1007.3
20260506212544 18 89 3.2 22.5 0.00 0.00 0.00 68 1007.5
20260506212048 18 88 1.6 27.4 0.00 0.00 0.00 68 1007.4
20260506211544 18 77 8.0 27.4 0.00 0.00 0.00 68 1007.4
20260506211047 18 89 3.2 25.7 0.00 0.00 0.00 68 1007.3
20260506210544 18 251 4.8 20.9 0.00 0.00 0.00 67 1007.2
20260506210100 18 18 6.4 24.1 0.00 0.00 0.00 67 1007.1
20260506205544 18 99 8.0 33.8 0.00 0.00 0.00 66 1007.0
20260506205326 18 15 9.7 33.8 0.00 0.00 0.00 66 1007.2
20260506204543 18 83 14.5 17.7 0.00 0.00 0.00 66 1007.1
20260506204047 18 101 4.8 14.5 0.00 0.00 0.00 66 1007.1
20260506203547 18 331 9.7 14.5 0.00 0.00 0.00 66 1006.9
20260506203047 18 28 4.8 14.5 0.00 0.00 0.00 66 1006.8
20260506202544 18 70 4.8 20.9 0.00 0.00 0.00 65 1006.9
20260506202046 18 168 12.9 20.9 0.00 0.00 0.00 65 1006.8
20260506201544 18 17 6.4 24.1 0.00 0.00 0.00 65 1006.7
20260506201047 18 88 4.8 24.1 0.00 0.00 0.00 64 1006.8
20260506200545 18 84 11.3 16.1 0.00 0.00 0.00 64 1006.7
20260506195544 19 96 11.3 25.7 0.00 0.00 0.00 63 1006.7
20260506195046 19 101 8.0 16.1 0.00 0.00 0.00 63 1006.7
20260506194544 19 53 3.2 16.1 0.00 0.00 0.00 63 1006.7
20260506194047 18 69 3.2 16.1 0.00 0.00 0.00 63 1006.8
20260506193544 18 75 1.6 17.7 0.00 0.00 0.00 64 1006.7
20260506193047 19 271 0.0 27.4 0.00 0.00 0.00 63 1006.6
20260506192827 19 83 4.8 27.4 0.00 0.00 0.00 62 1006.7
20260506192047 19 134 6.4 12.9 0.00 0.00 0.00 62 1006.9
20260506191821 19 126 4.8 16.1 0.00 0.00 0.00 61 1006.9
20260506191047 19 75 11.3 16.1 0.00 0.00 0.00 61 1006.7
20260506190545 19 104 0.0 33.8 0.00 0.00 0.00 62 1006.7
20260506190100 20 59 8.0 33.8 0.00 0.00 0.00 61 1006.8
20260506185546 20 144 8.0 16.1 0.00 0.00 0.00 60 1006.7
20260506185047 20 40 6.4 20.9 0.00 0.00 0.00 60 1006.7
20260506184544 20 91 11.3 20.9 0.00 0.00 0.00 60 1006.8
20260506184047 20 151 0.0 17.7 0.00 0.00 0.00 61 1006.5
20260506183544 20 37 1.6 17.7 0.00 0.00 0.00 60 1006.4
20260506183047 20 49 4.8 17.7 0.00 0.00 0.00 60 1006.2
20260506182544 20 124 8.0 12.9 0.00 0.00 0.00 60 1006.1
20260506182037 20 51 6.4 12.9 0.00 0.00 0.00 59 1006.1
20260506181810 20 95 4.8 17.7 0.00 0.00 0.00 60 1006.3
20260506181023 20 120 6.4 20.9 0.00 0.00 0.00 59 1006.1
20260506180521 20 74 8.0 20.9 0.00 0.00 0.00 59 1006.1
20260506180017 20 91 1.6 16.1 0.00 0.00 0.00 58 1006.3
20260506175517 20 106 3.2 16.1 0.00 0.00 0.00 59 1006.0
20260506175014 20 79 4.8 20.9 0.00 0.00 0.00 58 1006.1
20260506174506 20 46 4.8 20.9 0.00 0.00 0.00 58 1006.1
20260506174005 21 128 9.7 24.1 0.00 0.00 0.00 58 1006.3
20260506173503 21 97 12.9 24.1 0.00 0.00 0.00 57 1006.2
20260506172953 21 49 11.3 22.5 0.00 0.00 0.00 57 1006.3
20260506172454 21 79 6.4 22.5 0.00 0.00 0.00 57 1006.2
20260506171953 21 66 0.0 16.1 0.00 0.00 0.00 59 1006.2
20260506171454 21 107 1.6 17.7 0.00 0.00 0.00 58 1006.6
20260506170954 21 69 6.4 27.4 0.00 0.00 0.00 58 1006.2
20260506170506 21 89 6.4 27.4 0.00 0.00 0.00 58 1006.4
20260506165953 21 124 4.8 30.6 0.00 0.00 0.00 57 1006.4
20260506165453 21 28 6.4 30.6 0.00 0.00 0.00 58 1006.5
20260506164954 21 157 12.9 20.9 0.00 0.00 0.00 58 1006.5
20260506164453 21 78 3.2 25.7 0.00 0.00 0.00 58 1006.5
20260506163954 21 93 3.2 37.0 0.00 0.00 0.00 58 1006.5
20260506163454 21 71 4.8 37.0 0.00 0.00 0.00 58 1006.4
20260506162954 21 1 8.0 22.5 0.00 0.00 0.00 58 1006.7
20260506162731 21 126 4.8 22.5 0.00 0.00 0.00 58 1006.5
20260506161953 21 39 14.5 22.5 0.00 0.00 0.00 57 1006.8
20260506161453 22 113 6.4 27.4 0.00 0.00 0.00 58 1006.7
20260506161231 21 109 1.6 27.4 0.00 0.00 0.00 57 1006.9
20260506160454 21 104 9.7 24.1 0.00 0.00 0.00 57 1006.9
20260506160305 21 85 4.8 14.5 0.00 0.00 0.00 57 1007.1
20260506155453 21 52 3.2 12.9 0.00 0.00 0.00 57 1007.2
20260506154952 21 228 1.6 12.9 0.00 0.00 0.00 57 1007.0
20260506154453 21 101 11.3 17.7 0.00 0.00 0.00 57 1007.1
20260506154233 21 148 6.4 17.7 0.00 0.00 0.00 57 1007.3
20260506153454 21 42 4.8 20.9 0.00 0.00 0.00 57 1007.3
20260506152954 21 48 11.3 20.9 0.00 0.00 0.00 57 1007.4
20260506152454 21 43 9.7 20.9 0.00 0.00 0.00 57 1007.3
20260506151952 21 75 9.7 20.9 0.00 0.00 0.00 57 1007.4
20260506151454 21 61 6.4 25.7 0.00 0.00 0.00 57 1007.4
20260506151008 21 18 4.8 14.5 0.00 0.00 0.00 57 1007.5
20260506150959 21 92 4.8 25.7 0.00 0.00 0.00 57 1007.4
20260506150239 22 120 9.7 14.5 0.00 0.00 0.00 57 1007.5
20260506145454 22 130 0.0 16.1 0.00 0.00 0.00 57 1007.7
20260506144954 22 60 0.0 16.1 0.00 0.00 0.00 57 1008.0
20260506144730 22 351 1.6 27.4 0.00 0.00 0.00 56 1007.7
20260506143952 21 170 1.6 29.0 0.00 0.00 0.00 56 1007.9
20260506143453 21 219 6.4 29.0 0.00 0.00 0.00 57 1007.9
20260506142951 21 91 8.0 22.5 0.00 0.00 0.00 57 1008.1
20260506142452 21 140 6.4 22.5 0.00 0.00 0.00 58 1007.9
20260506141951 21 75 14.5 24.1 0.00 0.00 0.00 57 1007.9
20260506141450 21 285 0.0 29.0 0.00 0.00 0.00 58 1007.9
20260506140951 22 75 25.7 29.0 0.00 0.00 0.00 57 1008.1
20260506140535 22 133 3.2 25.7 0.00 0.00 0.00 57 1008.2
20260506140522 22 103 24.1 27.4 0.00 0.00 0.00 56 1008.2
20260506135451 21 108 6.4 24.1 0.00 0.00 0.00 59 1008.3
20260506134952 21 132 6.4 24.1 0.00 0.00 0.00 58 1008.3
20260506134451 21 53 8.0 27.4 0.00 0.00 0.00 58 1008.3
20260506133952 21 255 6.4 27.4 0.00 0.00 0.00 59 1008.4
20260506133451 22 90 3.2 16.1 0.00 0.00 0.00 60 1008.2
20260506132951 21 58 1.6 17.7 0.00 0.00 0.00 60 1008.5
20260506132454 21 49 9.7 22.5 0.00 0.00 0.00 60 1008.6
20260506131954 21 83 3.2 22.5 0.00 0.00 0.00 60 1008.5
20260506131453 22 99 12.9 22.5 0.00 0.00 0.00 58 1008.6
20260506131231 21 88 3.2 17.7 0.00 0.00 0.00 58 1008.4
20260506130453 22 90 3.2 16.1 0.00 0.00 0.00 57 1008.5
20260506125953 22 231 3.2 16.1 0.00 0.00 0.00 56 1008.4
20260506125453 22 173 1.6 17.7 0.00 0.00 0.00 55 1008.5
20260506124954 22 94 9.7 17.7 0.00 0.00 0.00 56 1008.6
20260506124454 21 29 1.6 25.7 0.00 0.00 0.00 55 1008.5
20260506123954 21 64 9.7 25.7 0.00 0.00 0.00 55 1008.4
20260506123455 22 114 3.2 11.3 0.00 0.00 0.00 53 1008.6
20260506122953 22 14 0.0 17.7 0.00 0.00 0.00 54 1008.7
20260506122453 22 83 0.0 22.5 0.00 0.00 0.00 54 1008.6
20260506121954 22 341 4.8 22.5 0.00 0.00 0.00 53 1008.5
20260506121455 23 295 9.7 16.1 0.00 0.00 0.00 52 1008.7
20260506120954 23 296 3.2 17.7 0.00 0.00 0.00 51 1008.6
20260506120453 22 78 3.2 27.4 0.00 0.00 0.00 52 1008.3
20260506115953 21 93 4.8 27.4 0.00 0.00 0.00 55 1008.7
20260506115454 22 73 1.6 24.1 0.00 0.00 0.00 53 1008.6
20260506115012 22 46 11.3 14.5 0.00 0.00 0.00 55 1008.7
20260506115002 21 85 6.4 24.1 0.00 0.00 0.00 54 1008.6
20260506113953 22 253 3.2 17.7 0.00 0.00 0.00 54 1008.8
20260506113447 21 4 6.4 22.5 0.00 0.00 0.00 56 1008.8
20260506112947 23 122 6.4 22.5 0.00 0.00 0.00 53 1009.1
20260506112448 22 81 9.7 17.7 0.00 0.00 0.00 53 1008.7
20260506111943 22 21 8.0 17.7 0.00 0.00 0.00 53 1008.9
20260506111459 22 65 3.2 17.7 0.00 0.00 0.00 54 1008.7
20260506110942 22 112 9.7 17.7 0.00 0.00 0.00 53 1008.8
20260506110445 22 95 3.2 12.9 0.00 0.00 0.00 55 1008.8
20260506105941 22 84 4.8 20.9 0.00 0.00 0.00 54 1008.8
20260506105444 21 87 0.0 20.9 0.00 0.00 0.00 55 1008.8
20260506105222 21 114 4.8 20.9 0.00 0.00 0.00 55 1008.8
20260506104446 21 1 6.4 20.9 0.00 0.00 0.00 55 1008.8
20260506103941 22 64 12.9 17.7 0.00 0.00 0.00 54 1008.9
20260506103728 22 13 3.2 9.7 0.00 0.00 0.00 52 1009.1
20260506102941 21 44 3.2 9.7 0.00 0.00 0.00 55 1008.9
20260506102445 21 314 4.8 16.1 0.00 0.00 0.00 57 1009.2
20260506101942 21 313 1.6 24.1 0.00 0.00 0.00 57 1009.1
20260506101444 21 329 6.4 24.1 0.00 0.00 0.00 57 1009.0
20260506100945 20 96 8.0 11.3 0.00 0.00 0.00 58 1009.1
20260506100502 20 55 1.6 11.3 0.00 0.00 0.00 60 1009.1
20260506095944 20 113 1.6 11.3 0.00 0.00 0.00 61 1009.1
20260506095446 20 88 8.0 11.3 0.00 0.00 0.00 61 1009.2
20260506094941 20 83 3.2 12.9 0.00 0.00 0.00 62 1009.2
20260506094445 20 65 8.0 20.9 0.00 0.00 0.00 62 1009.4
20260506094218 20 45 3.2 20.9 0.00 0.00 0.00 62 1009.3
20260506093444 20 44 8.0 16.1 0.00 0.00 0.00 62 1009.2
20260506092940 21 119 6.4 16.1 0.00 0.00 0.00 60 1009.3
20260506092446 20 99 9.7 20.9 0.00 0.00 0.00 61 1009.4
20260506092217 20 17 6.4 20.9 0.00 0.00 0.00 63 1009.3
20260506091444 20 270 1.6 17.7 0.00 0.00 0.00 61 1009.4
20260506091219 20 285 6.4 17.7 0.00 0.00 0.00 61 1009.1
20260506090445 20 338 11.3 20.9 0.00 0.00 0.00 62 1009.4
20260506085944 20 306 9.7 20.9 0.00 0.00 0.00 61 1009.3
20260506085444 20 85 3.2 27.4 0.00 0.00 0.00 62 1009.3
20260506084942 20 305 4.8 27.4 0.00 0.00 0.00 64 1009.3
20260506084444 20 51 3.2 17.7 0.00 0.00 0.00 63 1009.1
20260506083941 20 69 8.0 14.5 0.00 0.00 0.00 63 1009.1
20260506083444 19 332 4.8 14.5 0.00 0.00 0.00 65 1009.1
20260506082942 19 283 1.6 16.1 0.00 0.00 0.00 65 1009.1
20260506082741 19 344 4.8 16.1 0.00 0.00 0.00 65 1009.3
20260506081941 18 56 3.2 16.1 0.00 0.00 0.00 66 1009.2
20260506081444 18 114 3.2 17.7 0.00 0.00 0.00 67 1009.1
20260506080941 18 92 8.0 22.5 0.00 0.00 0.00 67 1009.2
20260506080446 18 295 6.4 22.5 0.00 0.00 0.00 67 1009.2
20260506073442 17 84 9.7 22.5 0.00 0.00 0.00 69 1009.2
20260506072942 17 51 4.8 20.9 0.00 0.00 0.00 69 1009.2
20260506072441 18 223 3.2 20.9 0.00 0.00 0.00 69 1009.3
20260506071941 17 91 17.7 20.9 0.00 0.00 0.00 69 1009.1
20260506071512 18 262 6.4 11.3 0.00 0.00 0.00 68 1009.3
20260506071450 17 57 9.7 20.9 0.00 0.00 0.00 70 1009.2
20260506070729 17 249 1.6 14.5 0.00 0.00 0.00 69 1009.3
20260506062441 16 114 6.4 16.1 0.00 0.00 0.00 72 1009.0
20260506061928 16 80 6.4 17.7 0.00 0.00 0.00 72 1009.0
20260506061430 16 87 8.0 20.9 0.00 0.00 0.00 72 1008.9
20260506060921 15 112 11.3 20.9 0.00 0.00 0.00 73 1008.9
20260506060705 15 66 6.4 17.7 0.00 0.00 0.00 73 1008.9
20260506051415 13 89 6.4 14.5 0.00 0.00 0.00 78 1008.8
20260506050906 13 104 4.8 14.5 0.00 0.00 0.00 77 1008.7
20260506050637 13 173 4.8 9.7 0.00 0.00 0.00 78 1008.8
20260506045127 12 81 3.2 4.8 0.00 0.00 0.00 83 1008.4
20260506044354 12 82 0.0 3.2 0.00 0.00 0.00 84 1008.6
20260506043850 11 81 0.0 3.2 0.00 0.00 0.00 86 1008.5
20260506043351 11 81 0.0 3.2 0.00 0.00 0.00 86 1008.3
20260506042843 11 81 0.0 3.2 0.00 0.00 0.00 86 1008.2
20260506042619 11 81 0.0 3.2 0.00 0.00 0.00 86 1008.3
20260506042120 11 81 0.0 3.2 0.00 0.00 0.00 85 1008.3
20260506041344 11 81 1.6 3.2 0.00 0.00 0.00 85 1008.3
20260506040843 11 93 0.0 3.2 0.00 0.00 0.00 86 1008.4
20260506040344 11 93 0.0 3.2 0.00 0.00 0.00 85 1008.3
20260506035844 12 93 0.0 4.8 0.00 0.00 0.00 84 1008.2
20260506035343 12 93 0.0 6.4 0.00 0.00 0.00 81 1008.2
20260506034843 12 92 3.2 9.7 0.00 0.00 0.00 83 1008.4
20260506034344 12 92 3.2 11.3 0.00 0.00 0.00 82 1008.1
20260506033843 12 101 3.2 11.3 0.00 0.00 0.00 80 1008.1
20260506033344 12 106 4.8 9.7 0.00 0.00 0.00 81 1008.2
20260506032843 12 64 0.0 9.7 0.00 0.00 0.00 80 1008.2
20260506032343 13 107 3.2 12.9 0.00 0.00 0.00 80 1008.1
20260506031844 13 134 3.2 14.5 0.00 0.00 0.00 79 1007.9
20260506031343 13 167 3.2 14.5 0.00 0.00 0.00 79 1008.0
20260506031122 13 67 6.4 11.3 0.00 0.00 0.00 78 1008.0
20260506030343 13 81 8.0 22.5 0.00 0.00 0.00 78 1008.0
20260506025844 13 42 8.0 22.5 0.00 0.00 0.00 77 1008.0
20260506025344 13 83 3.2 11.3 0.00 0.00 0.00 77 1007.7
20260506024843 13 106 3.2 16.1 0.00 0.00 0.00 78 1007.9
20260506024342 13 75 6.4 16.1 0.00 0.00 0.00 77 1007.6
20260506023841 13 137 6.4 12.9 0.00 0.00 0.00 77 1008.0
20260506023341 13 89 0.0 14.5 0.00 0.00 0.00 76 1008.0
20260506022842 13 88 1.6 14.5 0.00 0.00 0.00 76 1007.7
20260506022340 13 97 1.6 20.9 0.00 0.00 0.00 76 1007.5
20260506021841 13 116 8.0 20.9 0.00 0.00 0.00 75 1007.5
20260506021340 14 112 6.4 20.9 0.00 0.00 0.00 76 1007.5
20260506020841 14 73 4.8 20.9 0.00 0.00 0.00 75 1007.6
20260506020340 14 67 9.7 17.7 0.00 0.00 0.00 75 1007.7
20260506015843 14 133 6.4 16.1 0.00 0.00 0.00 75 1007.9
20260506015341 14 74 3.2 20.9 0.00 0.00 0.00 74 1007.9
20260506014840 14 95 0.0 24.1 0.00 0.00 0.00 74 1007.7
20260506014341 14 64 11.3 24.1 0.00 0.00 0.00 74 1007.6
20260506014119 14 62 4.8 11.3 0.00 0.00 0.00 74 1007.9
20260506013633 14 242 0.0 14.5 0.00 0.00 0.00 74 1007.7
20260506012840 14 71 6.4 20.9 0.00 0.00 0.00 73 1007.5
20260506012343 14 62 6.4 22.5 0.00 0.00 0.00 73 1007.3
20260506012129 15 73 8.0 22.5 0.00 0.00 0.00 73 1007.2
20260506011344 15 111 6.4 22.5 0.00 0.00 0.00 72 1007.3
20260506010844 15 87 6.4 25.7 0.00 0.00 0.00 72 1007.2
20260506010344 15 155 6.4 29.0 0.00 0.00 0.00 72 1007.3
20260506005844 15 359 20.9 35.4 0.00 0.00 0.00 71 1007.6
20260506005344 15 123 4.8 35.4 0.00 0.00 0.00 71 1007.5
20260506005131 15 143 1.6 30.6 0.00 0.00 0.00 71 1007.2
20260506004343 15 47 11.3 30.6 0.00 0.00 0.00 70 1007.3
20260506004119 15 80 9.7 12.9 0.00 0.00 0.00 70 1007.1
20260506003343 15 326 8.0 12.9 0.00 0.00 0.00 70 1007.2
20260506002844 15 338 1.6 33.8 0.00 0.00 0.00 70 1007.1
20260506002344 15 283 6.4 33.8 0.00 0.00 0.00 69 1006.9
20260506001844 15 89 14.5 25.7 0.00 0.00 0.00 69 1006.9
20260506001343 15 94 14.5 22.5 0.00 0.00 0.00 69 1006.9
20260506000843 15 296 4.8 14.5 0.00 0.00 0.00 68 1007.0
20260506000344 15 72 3.2 22.5 0.00 0.00 0.00 68 1006.9
20260505235844 15 94 4.8 22.5 0.00 0.00 0.00 68 1006.8
20260505235344 15 274 1.6 20.9 0.00 0.00 0.00 68 1006.9
20260505234843 16 106 8.0 33.8 0.00 0.00 0.00 67 1006.8
20260505234642 16 228 0.0 33.8 0.00 0.00 0.00 67 1006.7
20260505234120 16 144 9.7 27.4 0.00 0.00 0.00 67 1006.8
20260505233345 16 160 6.4 30.6 0.00 0.00 0.00 67 1006.6
20260505233116 16 88 14.5 33.8 0.00 0.00 0.00 66 1006.7
20260505232341 16 51 14.5 37.0 0.00 0.00 0.00 66 1006.8
20260505231840 16 69 12.9 37.0 0.00 0.00 0.00 66 1007.0
20260505231652 16 53 9.7 27.4 0.00 0.00 0.00 65 1007.0
20260505231646 16 50 6.4 37.0 0.00 0.00 0.00 66 1006.8
20260505230353 16 69 16.1 27.4 0.00 0.00 0.00 65 1007.2
20260505225841 16 61 17.7 41.8 0.00 0.00 0.00 65 1007.4
20260505225340 16 75 17.7 41.8 0.00 0.00 0.00 64 1007.3